Probability
1 1 2 2 1 2 3 2 1 1 1 0 0 1 2 3 3 4 5 4 2 0 0 0 0 0 0 0 0 0 0 0 0 0 0 0 0 0 0 0 0 0 0
2 2 3 3 2 3 4 4 3 3 2 1 0 2 3 4 4 4 4 4 1 0 0 0 0 0 0 0 0 0 0 0 0 0 0 0 0 0 0 0 0 0 0
5 4 4 4 3 3 4 5 5 4 3 1 2 4 5 6 6 5 4 3 1 0 0 0 0 0 0 0 0 0 0 0 0 0 0 0 0 0 0 0 0 0 0
7 6 6 7 6 4 4 5 6 5 4 4 4 6 6 7 6 6 5 3 2 1 0 0 0 0 0 0 0 0 0 0 0 0 0 0 0 0 0 0 0 0 0
9 8 9 11 10 7 7 9 9 8 8 8 7 6 6 6 7 7 6 5 3 1 0 0 0 0 0 0 0 0 0 0 0 0 0 0 0 0 0 0 0 0 0
12 9 11 15 13 11 13 15 13 12 12 11 9 6 5 6 6 7 7 5 3 1 0 0 0 0 0 0 0 0 0 0 0 0 0 0 0 0 0 0 0 0 0
16 13 12 14 14 14 16 16 15 14 14 13 10 5 3 5 6 6 6 5 3 1 0 0 0 0 0 0 0 0 0 0 0 0 0 0 0 0 0 0 0 0 0
18 16 14 14 15 16 15 15 15 16 16 13 9 5 4 5 5 6 5 5 3 1 0 0 0 0 0 0 0 0 0 0 0 0 0 0 0 0 0 0 0 0 0
16 15 13 11 13 16 16 16 17 18 17 14 9 6 5 4 4 5 6 6 5 3 2 1 1 1 1 1 1 1 0 0 0 0 0 0 0 1 2 1 0 0 0
11 10 8 6 7 10 13 15 16 16 16 14 12 9 6 5 5 6 7 6 5 4 3 2 2 2 2 2 2 2 1 0 0 0 0 1 1 3 6 5 2 1 1
8 6 3 1 2 5 8 10 11 10 11 12 12 11 9 7 6 6 6 6 4 3 2 3 3 3 2 2 3 3 2 0 0 1 1 2 4 7 10 9 6 5 4
11 8 4 2 2 4 6 7 5 5 6 7 9 10 10 8 6 4 4 5 3 2 1 2 2 1 1 1 1 2 1 1 1 1 1 3 6 9 11 11 11 10 9
15 12 8 4 3 4 5 5 4 3 3 4 6 8 7 5 5 4 3 3 2 1 0 1 1 0 0 0 0 0 1 3 2 1 1 3 6 9 10 11 13 13 13
18 15 11 6 4 4 4 4 4 4 3 2 3 4 3 2 3 3 3 3 2 1 0 0 0 0 0 0 0 0 1 2 2 1 1 2 5 7 8 9 12 14 14
20 18 12 7 5 4 4 4 4 4 3 1 1 1 1 0 1 3 3 3 2 1 0 0 0 0 0 0 0 0 0 1 1 2 1 1 3 5 6 6 9 12 13
22 19 13 8 6 6 6 4 3 3 2 1 0 0 0 0 1 2 2 1 1 1 0 0 0 0 0 0 0 0 0 0 1 2 1 0 1 3 4 5 7 9 10
20 16 13 10 8 7 5 3 1 1 1 1 0 0 1 1 1 1 2 1 0 0 0 0 0 0 0 0 0 0 0 0 0 1 1 0 0 2 4 6 6 7 7
15 12 11 11 8 5 3 1 0 0 0 0 0 1 2 3 2 2 1 0 0 0 1 1 1 0 0 0 0 0 0 0 0 0 0 0 0 1 3 5 5 5 5
11 10 11 11 7 4 2 1 0 0 0 1 1 1 3 4 4 2 1 1 1 1 1 2 1 0 0 0 0 0 0 0 0 0 0 0 0 0 1 2 3 3 2
9 11 13 11 7 5 3 2 1 1 1 1 2 3 4 4 3 2 1 2 2 1 1 2 1 0 0 0 0 0 0 0 0 0 0 0 0 0 0 0 1 1 1
11 14 14 12 9 8 7 5 3 2 1 1 2 4 4 4 3 3 2 2 2 1 1 1 1 0 0 0 0 0 0 0 0 0 0 0 0 0 0 0 0 0 0
14 15 15 12 11 11 10 9 6 3 2 2 3 4 4 4 5 5 3 1 1 2 2 1 1 0 0 0 0 0 0 0 0 0 0 0 0 0 0 0 0 0 0
15 15 14 12 12 12 12 10 8 5 5 4 4 3 3 4 6 6 3 2 2 2 2 2 2 1 0 0 0 0 0 0 0 0 0 0 0 0 0 0 0 0 0
14 14 13 11 11 12 11 10 9 7 6 6 4 3 4 5 6 6 4 3 2 2 1 1 2 2 1 1 0 0 0 0 0 0 0 0 0 0 0 0 0 0 0
13 13 12 11 11 10 10 10 9 8 7 6 4 4 5 6 6 5 4 3 1 1 0 0 1 2 2 1 0 0 0 0 0 0 0 0 0 0 0 0 0 0 0
12 12 13 12 10 10 10 10 9 8 7 6 5 5 6 6 5 4 4 2 0 0 0 0 1 2 2 1 0 0 0 0 0 0 0 0 0 0 0 0 0 0 0
Wind_Speed
6 7 14 14 14 14 14 15 15 15 15 15 15 15 15 15 14 14 13 12 12 11 11 10 10 10 10 10 11 11 11 12 12 13 13 12 12 12 13 14 12 9 13
10 9 15 15 14 14 14 14 14 14 14 14 14 14 14 14 13 12 12 11 10 10 10 9 9 9 9 9 10 10 10 10 10 11 12 11 12 12 12 12 12 8 12
12 9 13 15 15 15 15 14 14 14 13 13 13 13 13 12 11 11 10 9 9 9 8 8 8 8 7 7 8 8 7 7 7 9 9 5 7 11 12 13 13 12 11
12 8 11 15 14 15 14 14 13 13 13 12 12 12 11 11 10 9 9 8 8 7 7 7 7 6 6 6 6 5 5 4 4 5 3 3 4 11 13 13 12 12 11
10 8 11 16 15 15 14 13 13 13 13 12 11 11 10 9 9 8 8 7 7 6 5 5 5 5 4 4 4 3 3 2 2 2 2 2 3 10 12 12 12 11 11
10 8 11 15 15 14 14 13 13 12 12 11 11 10 9 8 7 7 6 6 5 5 4 4 4 3 3 2 2 2 2 3 2 1 1 3 4 10 12 12 12 11 11
10 7 10 14 14 14 14 13 12 12 11 10 9 9 8 7 6 5 5 4 4 4 3 3 3 2 1 1 1 2 3 4 2 0 2 4 5 11 12 11 12 11 11
11 8 8 13 14 14 13 12 11 11 10 9 8 7 6 5 4 4 4 3 3 3 2 2 1 1 1 1 2 2 3 3 3 2 1 3 7 11 13 12 12 12 11
9 8 6 7 9 12 12 11 10 10 9 8 7 6 5 4 3 3 3 3 3 3 3 3 2 2 2 3 4 4 3 3 1 0 1 2 7 11 12 12 12 12 11
7 6 6 6 6 6 7 10 10 9 8 7 7 6 5 4 3 3 3 3 3 3 3 3 3 4 4 4 5 5 5 4 1 1 1 3 8 11 12 12 12 12 12
7 5 5 5 5 5 5 7 8 8 6 6 4 4 3 1 0 1 2 4 4 3 4 4 4 5 5 5 6 6 5 1 1 1 2 4 7 11 11 12 12 12 12
7 5 4 5 5 4 4 4 3 3 3 3 2 2 1 1 0 0 1 2 2 3 4 4 5 5 4 2 4 5 1 2 2 2 3 6 8 10 11 11 12 12 12
7 6 4 4 4 4 3 3 2 2 2 2 2 2 1 1 1 1 1 1 2 2 2 3 3 2 2 2 2 2 2 2 2 2 3 6 8 10 11 11 11 12 12
6 5 4 3 4 3 3 3 2 2 2 2 2 2 2 1 1 1 1 1 1 1 1 2 2 2 2 2 2 2 2 1 2 2 3 8 8 10 11 11 11 11 11
6 4 4 4 4 4 3 2 3 2 2 2 1 1 2 1 1 0 1 1 1 1 1 1 2 2 2 2 2 1 1 2 2 2 3 7 8 9 10 11 11 11 11
6 4 3 4 4 4 3 3 2 2 2 2 1 1 2 1 1 1 0 1 1 1 1 1 2 2 2 2 2 2 1 1 2 2 2 4 7 8 9 10 11 11 11
5 4 3 3 4 4 3 3 3 3 2 2 2 2 2 2 1 1 0 1 1 1 1 1 2 1 2 2 2 2 2 1 2 2 2 2 3 5 7 8 8 8 9
5 4 3 3 4 4 3 3 3 3 3 2 2 1 2 2 2 2 1 1 2 1 1 1 1 2 2 2 2 2 2 1 2 2 1 1 1 1 3 5 5 6 6
5 4 4 3 4 4 3 3 3 3 3 2 2 2 2 2 3 2 1 1 2 1 1 1 1 1 1 2 2 2 2 2 2 1 1 1 0 1 1 2 2 2 4
5 5 4 4 3 3 3 3 3 3 2 2 2 2 3 2 3 2 1 2 2 2 2 2 1 1 1 1 2 3 2 2 2 2 2 2 2 2 2 2 2 2 2
5 5 4 4 3 2 2 2 2 2 1 1 2 2 3 2 2 2 2 2 2 1 2 2 1 2 1 1 2 2 3 3 3 2 2 2 3 3 3 3 2 2 2
4 4 4 3 3 2 2 1 2 2 1 1 2 3 3 3 3 2 2 2 2 2 2 2 1 1 1 1 1 1 2 3 4 4 3 3 3 3 3 4 3 3 2
4 4 3 3 3 3 3 3 3 3 2 3 3 2 2 3 3 3 3 2 2 2 2 2 1 1 1 1 0 1 1 1 1 2 3 3 3 3 3 3 4 4 3
4 4 3 3 3 3 3 4 4 3 2 1 1 1 2 3 3 3 2 2 2 2 2 2 2 1 0 1 1 0 1 2 1 1 2 3 3 4 3 3 3 3 3
5 4 3 3 4 4 3 4 4 3 2 1 2 3 3 3 3 3 3 2 2 2 2 2 2 2 1 1 1 0 0 0 1 1 1 2 2 3 3 3 2 3 3
4 4 4 4 4 3 4 4 4 4 3 3 3 2 2 2 3 4 3 2 2 2 2 2 2 3 2 1 0 0 1 1 1 1 1 1 1 2 2 2 2 2 2
Wind_Direction
134 140 134 126 121 117 112 108 103 100 97 94 92 90 89 89 91 94 97 98 98 97 95 94 93 92 94 96 97 100 103 107 111 113 114 112 113 117 118 114 113 111 113
138 141 134 129 125 122 119 115 111 107 103 99 96 93 92 92 91 92 94 95 96 97 96 94 93 93 94 95 97 101 106 111 117 119 117 114 113 116 119 119 118 121 119
131 135 134 131 128 125 122 119 117 113 109 104 100 98 95 94 93 94 95 96 96 97 97 95 94 93 92 91 93 97 102 109 118 118 112 107 113 118 120 121 122 122 121
130 131 134 132 128 126 125 123 121 119 116 112 107 104 102 99 98 99 100 100 98 97 98 97 94 93 91 89 87 88 90 95 108 116 118 138 130 125 124 126 127 127 125
122 126 134 132 129 128 128 127 126 125 122 119 115 112 110 107 105 104 104 104 101 100 101 100 97 93 91 86 81 74 69 50 50 83 131 154 140 139 136 135 135 134 133
118 123 133 133 131 131 131 130 129 128 126 124 122 120 118 116 114 113 112 110 108 109 109 108 105 100 91 79 62 37 18 357 355 90 150 163 159 153 148 146 145 143 143
119 119 130 131 132 132 133 132 132 131 130 127 126 127 126 125 122 120 121 121 122 124 125 121 117 113 94 15 341 346 351 354 17 94 172 174 175 163 155 154 153 153 153
122 119 125 132 134 134 135 135 134 133 132 130 129 129 129 128 127 127 131 137 142 148 153 153 156 176 236 283 299 315 328 334 5 29 174 184 186 174 164 166 165 164 163
116 117 114 123 129 133 134 134 134 133 133 133 132 130 131 131 136 149 157 170 180 188 193 201 216 238 260 277 285 290 296 301 352 297 209 203 199 186 176 175 173 173 173
107 112 114 115 121 127 133 135 134 131 132 133 133 134 137 143 158 175 184 202 212 220 227 235 245 256 263 274 281 285 288 297 256 233 202 207 203 195 187 183 179 180 182
107 108 115 118 121 126 133 137 137 137 136 130 127 135 126 102 126 205 223 215 228 237 250 257 265 272 270 276 282 283 285 257 245 209 202 212 204 202 197 191 186 187 189
118 115 116 122 127 129 133 120 119 126 114 103 101 108 105 94 23 57 305 256 259 263 274 279 280 282 280 284 291 291 260 235 243 221 219 211 202 205 206 201 195 194 196
126 121 117 122 125 126 118 120 107 98 99 93 88 88 85 71 25 28 44 327 315 314 311 304 300 291 284 273 271 275 253 236 228 235 240 223 211 210 211 206 199 200 202
116 116 118 119 121 115 113 120 117 111 106 96 83 82 87 75 55 44 37 338 340 328 312 313 303 293 288 273 266 269 264 239 233 231 238 232 220 216 216 212 206 206 207
107 108 110 108 109 106 108 117 109 112 117 113 89 75 77 75 66 54 17 8 345 331 322 324 305 298 297 292 290 294 291 266 248 234 245 237 224 220 224 221 215 215 217
105 105 107 101 103 104 107 108 109 110 112 96 71 55 69 83 90 99 39 3 332 318 304 293 296 300 292 298 314 330 307 269 259 255 245 246 236 228 231 230 225 221 221
109 107 104 117 107 107 106 106 105 102 98 86 71 51 52 58 69 76 52 359 325 328 337 341 339 342 353 344 340 337 323 311 283 265 253 250 254 241 239 239 234 227 227
105 97 95 113 101 101 101 101 98 95 94 85 70 56 60 55 52 60 37 348 333 350 5 4 18 0 354 342 333 321 319 312 301 294 306 295 276 276 264 254 241 231 229
109 103 86 82 92 100 102 100 95 88 85 84 75 59 50 47 52 60 30 342 344 4 4 354 15 7 343 344 331 325 331 328 320 350 21 359 353 333 317 313 288 260 247
102 99 85 81 81 91 94 95 83 73 68 67 63 50 49 41 44 47 28 357 358 12 3 355 348 350 308 323 341 350 345 350 7 28 26 23 22 22 21 15 5 354 343
90 84 83 80 70 77 91 98 99 89 65 52 59 52 45 41 44 50 25 9 5 18 354 347 347 356 340 11 34 3 0 14 32 33 34 34 23 20 26 29 24 13 357
99 90 78 76 76 70 85 111 119 116 94 72 44 41 39 39 32 43 36 18 6 12 6 360 4 360 337 21 68 35 350 357 14 19 25 35 22 14 21 23 27 29 15
107 102 95 82 77 68 67 79 77 64 47 31 28 28 23 35 37 34 33 31 16 25 5 349 1 28 319 326 50 137 135 260 329 353 16 25 18 19 21 22 26 24 22
129 114 100 88 74 67 76 90 95 97 85 40 18 32 21 28 29 26 26 28 28 24 8 346 11 352 338 313 324 347 185 174 174 319 342 2 13 20 17 20 19 20 19
135 124 108 94 77 69 77 97 100 87 77 50 47 48 30 15 16 17 22 23 22 18 3 356 2 4 358 269 249 288 346 347 173 171 265 333 1 4 7 10 17 15 14
135 120 104 98 83 78 79 85 97 97 87 72 58 48 23 6 2 5 13 13 10 9 3 357 360 7 357 341 285 207 189 203 217 176 209 284 319 335 353 14 21 11 7